Regional Weather Roundup
Issued by NWS Goodland, KS

Home | Current Version | Previous Version | Graphics & Text | Print | Product List | Glossary On
Versions: 1 2 3 4 5 6 7 8 9 10 11 12 13 14 15 16 17 18 19 20 21 22 23 24 25 26 27 28 29 30 31 32 33 34 35 36 37 38 39 40 41 42 43 44 45 46 47 48 49 50
000
ASUS43 KGLD 052008
RWRGLD

GOODLAND FORECAST AREA HOURLY WEATHER ROUNDUP
NATIONAL WEATHER SERVICE GOODLAND KS
200 PM MDT TUE MAY 05 2015

...OFFICIAL OBSERVATIONS...

CITY           SKY/WX    TMP DP  RH WIND       PRES   REMARKS
GOODLAND KS    LGT RAIN  59  56  89 SE20G33   29.88F
HILL CITY KS   CLOUDY    66  55  67 SE21      29.94F
IMPERIAL NEB   LGT RAIN  58  56  93 E7        29.93F
MCCOOK NEB     LGT RAIN  63  59  87 S14       29.93F
AKRON CO       LGT RAIN  52  52 100 E12       29.92F
BURLINGTON CO  LGT RAIN  56  53  90 E24G36    29.85F FOG
LIMON CO       LGT RAIN  52  49  89 E13       29.89F
$$

...UNOFFICIAL OBSERVATIONS...

CITY           SKY/WX    TMP DP  RH WIND       PRES   REMARKS
GOVE KS          N/A     62  32  32 MISG        N/A
LENORA KS        N/A     65  32  29 MISG        N/A
SHARON SPRINGS   N/A     58  56  95 MISG        N/A
KIT CARSON CO    N/A     56  53  90 MISG        N/A
YUMA CO          N/A     56  56 100 E12         N/A
$$



USA.gov is the U.S. government's official web portal to all federal, state and local government web resources and services.